THORAD AGENA D DEB, 4615

Orbit data source: Space-Track

THORAD AGENA D DEB, 4615 is space debris in SSO originally from a launch on Wed, 08 Apr 1970 UTC launched from the Air Force Western Test Range (AFWTR). Debris objects in space refer to the collection of defunct objects orbiting the Earth. Examples of debris include non-operational satellites, rocket bodies, and fragments generated from explosions, collisions, or faulty payload assembly.

Loading next visibility...
Identifier
4615, 1970-025T
Orbit
SSO
Country
Flag of USUS
Related business
Manufacturer
Unknown
Mission
Spacecraft
Bus & Motor
Unknown
Mass
Unknown
Launch date (UTC)
1970-04-08 (56 years ago)
Launch vehicle
Unknown
Launch site
Air Force Western Test Range (AFWTR)
Object type
Payload
Rocket body
Debris
Shape & HBR
Unknown shape, 0.3 m
Radar Cross Section
Medium (>0.1 m² and <1 m²)

Expand to show TLE details & history
Last TLE update: 10 hours ago

TLE from 10 hours ago
0 THORAD AGENA D DEB
1 04615U 70025T   26255.91288104  .00000173  00000-0  23926-3 0  9999
2 04615 100.1567  30.2811 0059061 247.8726 243.6972 13.72801371814672
Epoch: 2026-09-12T21:54Z
TLE epoch observation values (Epoch: 2026-09-12T21:54:32.921Z)
Latitude
48.10805°
Longitude
-98.8109°
Altitude
1,016.434 km
Speed
7.338 km/s
True Right ascension
14h 46m 57s
True Declination
47° 56' 35"
Sunlit
Object was in daylight at epoch
Visualization orbit readout
Latitude
Unknown
Longitude
Unknown
Altitude
Unknown
Speed
Unknown
Apparent Right ascension
Unknown
Apparent Declination
Unknown
Sunlit
N/A
Visualization observer readout
Local Sidereal Time
00:44:22
Azimuth
Unknown
Elevation
Unknown
Doppler factor
Unknown
Orbital elements
Apogee altitude
1,030.324 km
Perigee altitude
943.328 km
Semi-major axis
7,364.963 km
Eccentricity
0.00591
Inclination
100.1567°
RAAN
30.2811°
Arg. of periapsis
247.8726°
True anomaly
243.09247°
Mean anomaly
243.6972°
Eccentric anomaly
243.39464°
Mean motion
3.4339 °/min
Orbital period
104.84 mins
BSTAR
0.00023926
Loading maneuver chart data...
Computing Atmospheric mass density...

Documentation

Showing up to 5 results
|